Location: Hains Lake
(37.8540°N, 99.8578°W)
Time: 15:17:47
(UTC+00:00)

USA 215 - Pass Details

Date: 11 December 2019
Orbit: 1099 x 1109 km, 123.0° (Epoch: 03 January)

Event Time Altitude Azimuth Distance (km) Brightness Sun altitude
Exits shadow 23:42:49 - 40° (NE) 3,720 5.5 -4.8°
Reaches altitude 10° 23:44:52 10° 35° (NE) 2,964 5.0 -5.1°
Maximum altitude 23:51:00 44° 326° (NW) 1,477 4.1 -6.2°
Drops below altitude 10° 23:57:07 10° 256° (WSW) 2,961 7.2 -7.3°
Sets 23:59:42 0° 250° (WSW) 3,918 8.7 -7.8°
